| time (UTC) | temp F | wind direction | speed knots | gust knots | rain 1hr in | rain 24hr in | rain mn in | humidity % | barometer mb |
| 20260507104850 | 77 | 330 | 2.6 | 0.0 | 0.00 | 0.00 | 0.00 | 30 | 1014.0 |
| 20260507103350 | 77 | 330 | 2.6 | 0.0 | 0.00 | 0.00 | 0.00 | 30 | 1014.0 |
| 20260507101850 | 77 | 2.6 | 0.0 | 0.00 | 0.00 | 0.00 | 28 | 1015.0 | |
| 20260507100351 | 77 | 2.6 | 0.0 | 0.00 | 0.00 | 0.00 | 28 | 1015.0 | |
| 20260507094851 | 75 | 60 | 5.2 | 0.0 | 0.00 | 0.00 | 0.00 | 29 | 1015.0 |
| 20260507093351 | 75 | 60 | 5.2 | 0.0 | 0.00 | 0.00 | 0.00 | 29 | 1015.0 |
| 20260507091852 | 72 | 100 | 2.6 | 0.0 | 0.00 | 0.00 | 0.00 | 41 | 1015.0 |
| 20260507090351 | 72 | 100 | 2.6 | 0.0 | 0.00 | 0.00 | 0.00 | 41 | 1015.0 |
| 20260507084850 | 68 | 40 | 2.6 | 0.0 | 0.00 | 0.00 | 0.00 | 49 | 1015.0 |
| 20260507083351 | 68 | 40 | 2.6 | 0.0 | 0.00 | 0.00 | 0.00 | 49 | 1015.0 |
| 20260507081851 | 66 | 60 | 4.3 | 0.0 | 0.00 | 0.00 | 0.00 | 49 | 1016.0 |
| 20260507080351 | 66 | 60 | 4.3 | 0.0 | 0.00 | 0.00 | 0.00 | 49 | 1016.0 |
| 20260507074851 | 66 | 100 | 7.0 | 0.0 | 0.00 | 0.00 | 0.00 | 52 | 1016.0 |
| 20260507073350 | 66 | 100 | 7.0 | 0.0 | 0.00 | 0.00 | 0.00 | 52 | 1016.0 |
| 20260507071851 | 63 | 100 | 5.2 | 0.0 | 0.00 | 0.00 | 0.00 | 56 | 1016.0 |
| 20260507070350 | 63 | 100 | 5.2 | 0.0 | 0.00 | 0.00 | 0.00 | 56 | 1016.0 |
| 20260507064850 | 61 | 100 | 5.2 | 0.0 | 0.00 | 0.00 | 0.00 | 59 | 1016.0 |
| 20260507063350 | 61 | 100 | 5.2 | 0.0 | 0.00 | 0.00 | 0.00 | 59 | 1016.0 |
| 20260507061900 | 57 | 110 | 6.1 | 0.0 | 0.00 | 0.00 | 0.00 | 67 | 1016.0 |
| 20260507060350 | 57 | 110 | 6.1 | 0.0 | 0.00 | 0.00 | 0.00 | 67 | 1016.0 |
| 20260507054850 | 55 | 1.7 | 0.0 | 0.00 | 0.00 | 0.00 | 72 | 1016.0 | |
| 20260507053358 | 55 | 1.7 | 0.0 | 0.00 | 0.00 | 0.00 | 72 | 1016.0 | |
| 20260507051851 | 52 | 0.9 | 0.0 | 0.00 | 0.00 | 0.00 | 77 | 1016.0 | |
| 20260507050350 | 52 | 0.9 | 0.0 | 0.00 | 0.00 | 0.00 | 77 | 1016.0 | |
| 20260507044844 | 50 | 1.7 | 0.0 | 0.00 | 0.00 | 0.00 | 82 | 1016.0 | |
| 20260507043350 | 50 | 1.7 | 0.0 | 0.00 | 0.00 | 0.00 | 82 | 1016.0 | |
| 20260507041851 | 48 | 50 | 2.6 | 0.0 | 0.00 | 0.00 | 0.00 | 87 | 1016.0 |
| 20260507040350 | 48 | 50 | 2.6 | 0.0 | 0.00 | 0.00 | 0.00 | 87 | 1016.0 |
| 20260507034847 | 48 | 0.9 | 0.0 | 0.00 | 0.00 | 0.00 | 82 | 1016.0 | |
| 20260507033350 | 48 | 0.9 | 0.0 | 0.00 | 0.00 | 0.00 | 82 | 1016.0 | |
| 20260507031847 | 45 | 1.7 | 0.0 | 0.00 | 0.00 | 0.00 | 87 | 1016.0 | |
| 20260507030350 | 45 | 1.7 | 0.0 | 0.00 | 0.00 | 0.00 | 87 | 1016.0 | |
| 20260507024847 | 45 | 2.6 | 0.0 | 0.00 | 0.00 | 0.00 | 87 | 1015.0 | |
| 20260507023350 | 45 | 2.6 | 0.0 | 0.00 | 0.00 | 0.00 | 87 | 1015.0 | |
| 20260507021851 | 46 | 0 | 0.0 | 0.0 | 0.00 | 0.00 | 0.00 | 87 | 1015.0 |
| 20260507020350 | 46 | 0 | 0.0 | 0.0 | 0.00 | 0.00 | 0.00 | 87 | 1015.0 |
| 20260507014850 | 48 | 2.6 | 0.0 | 0.00 | 0.00 | 0.00 | 87 | 1015.0 | |
| 20260507013350 | 48 | 2.6 | 0.0 | 0.00 | 0.00 | 0.00 | 87 | 1015.0 | |
| 20260507011850 | 46 | 2.6 | 0.0 | 0.00 | 0.00 | 0.00 | 82 | 1015.0 | |
| 20260507010351 | 46 | 2.6 | 0.0 | 0.00 | 0.00 | 0.00 | 82 | 1015.0 | |
| 20260507004850 | 48 | 140 | 2.6 | 0.0 | 0.00 | 0.00 | 0.00 | 82 | 1015.0 |
| 20260507003351 | 48 | 140 | 2.6 | 0.0 | 0.00 | 0.00 | 0.00 | 82 | 1015.0 |
| 20260507001850 | 52 | 100 | 4.3 | 0.0 | 0.00 | 0.00 | 0.00 | 77 | 1015.0 |
| 20260507000350 | 52 | 100 | 4.3 | 0.0 | 0.00 | 0.00 | 0.00 | 77 | 1015.0 |
| 20260506234850 | 55 | 2.6 | 0.0 | 0.00 | 0.00 | 0.00 | 67 | 1015.0 | |
| 20260506233350 | 55 | 2.6 | 0.0 | 0.00 | 0.00 | 0.00 | 67 | 1015.0 | |
| 20260506231848 | 52 | 40 | 4.3 | 0.0 | 0.00 | 0.00 | 0.00 | 72 | 1015.0 |
| 20260506230350 | 52 | 40 | 4.3 | 0.0 | 0.00 | 0.00 | 0.00 | 72 | 1015.0 |
| 20260506224847 | 55 | 2.6 | 0.0 | 0.00 | 0.00 | 0.00 | 67 | 1015.0 | |
| 20260506223350 | 55 | 2.6 | 0.0 | 0.00 | 0.00 | 0.00 | 67 | 1015.0 | |
| 20260506221850 | 57 | 20 | 4.3 | 0.0 | 0.00 | 0.00 | 0.00 | 67 | 1015.0 |
| 20260506220350 | 57 | 20 | 4.3 | 0.0 | 0.00 | 0.00 | 0.00 | 67 | 1015.0 |
| 20260506214903 | 59 | 20 | 5.2 | 0.0 | 0.00 | 0.00 | 0.00 | 59 | 1015.0 |
| 20260506213350 | 59 | 20 | 5.2 | 0.0 | 0.00 | 0.00 | 0.00 | 59 | 1015.0 |
| 20260506211844 | 57 | 140 | 5.2 | 0.0 | 0.00 | 0.00 | 0.00 | 67 | 1014.0 |
| 20260506210350 | 57 | 140 | 5.2 | 0.0 | 0.00 | 0.00 | 0.00 | 67 | 1014.0 |
| 20260506204851 | 59 | 170 | 6.1 | 0.0 | 0.00 | 0.00 | 0.00 | 63 | 1014.0 |
| 20260506203350 | 59 | 170 | 6.1 | 0.0 | 0.00 | 0.00 | 0.00 | 63 | 1014.0 |
| 20260506201844 | 61 | 210 | 7.8 | 0.0 | 0.00 | 0.00 | 0.00 | 59 | 1014.0 |
| 20260506200350 | 61 | 210 | 7.8 | 0.0 | 0.00 | 0.00 | 0.00 | 59 | 1014.0 |
| 20260506194906 | 63 | 220 | 12.2 | 0.0 | 0.00 | 0.00 | 0.00 | 56 | 1014.0 |
| 20260506193414 | 63 | 220 | 12.2 | 0.0 | 0.00 | 0.00 | 0.00 | 56 | 1014.0 |
| 20260506191851 | 63 | 220 | 11.3 | 0.0 | 0.00 | 0.00 | 0.00 | 56 | 1014.0 |
| 20260506190351 | 63 | 220 | 11.3 | 0.0 | 0.00 | 0.00 | 0.00 | 56 | 1014.0 |
| 20260506184853 | 64 | 210 | 13.0 | 0.0 | 0.00 | 0.00 | 0.00 | 52 | 1014.0 |
| 20260506183350 | 64 | 210 | 13.0 | 0.0 | 0.00 | 0.00 | 0.00 | 52 | 1014.0 |
| 20260506181851 | 64 | 210 | 15.6 | 0.0 | 0.00 | 0.00 | 0.00 | 52 | 1013.0 |
| 20260506180351 | 64 | 210 | 15.6 | 0.0 | 0.00 | 0.00 | 0.00 | 52 | 1013.0 |
| 20260506174851 | 64 | 210 | 14.8 | 0.0 | 0.00 | 0.00 | 0.00 | 52 | 1013.0 |
| 20260506173350 | 64 | 210 | 14.8 | 0.0 | 0.00 | 0.00 | 0.00 | 52 | 1013.0 |
| 20260506171851 | 66 | 210 | 13.9 | 0.0 | 0.00 | 0.00 | 0.00 | 46 | 1013.0 |
| 20260506170350 | 66 | 210 | 13.9 | 0.0 | 0.00 | 0.00 | 0.00 | 46 | 1013.0 |
| 20260506164850 | 68 | 220 | 14.8 | 0.0 | 0.00 | 0.00 | 0.00 | 40 | 1013.0 |
| 20260506163350 | 68 | 220 | 14.8 | 0.0 | 0.00 | 0.00 | 0.00 | 40 | 1013.0 |
| 20260506161851 | 68 | 230 | 18.2 | 0.0 | 0.00 | 0.00 | 0.00 | 38 | 1013.0 |
| 20260506160350 | 68 | 230 | 18.2 | 0.0 | 0.00 | 0.00 | 0.00 | 38 | 1013.0 |
| 20260506154851 | 68 | 220 | 20.0 | 0.0 | 0.00 | 0.00 | 0.00 | 40 | 1013.0 |
| 20260506153350 | 68 | 220 | 20.0 | 0.0 | 0.00 | 0.00 | 0.00 | 40 | 1013.0 |
| 20260506151850 | 70 | 220 | 24.3 | 33.9 | 0.00 | 0.00 | 0.00 | 38 | 1013.0 |
| 20260506150356 | 70 | 220 | 24.3 | 33.9 | 0.00 | 0.00 | 0.00 | 38 | 1013.0 |
| 20260506144850 | 72 | 210 | 24.3 | 0.0 | 0.00 | 0.00 | 0.00 | 36 | 1013.0 |
| 20260506143402 | 72 | 210 | 24.3 | 0.0 | 0.00 | 0.00 | 0.00 | 36 | 1013.0 |
| 20260506141850 | 70 | 210 | 26.1 | 0.0 | 0.00 | 0.00 | 0.00 | 43 | 1013.0 |
| 20260506140512 | 70 | 210 | 26.1 | 0.0 | 0.00 | 0.00 | 0.00 | 43 | 1013.0 |
| 20260506134915 | 73 | 220 | 24.3 | 0.0 | 0.00 | 0.00 | 0.00 | 36 | 1013.0 |
| 20260506133350 | 73 | 220 | 24.3 | 0.0 | 0.00 | 0.00 | 0.00 | 36 | 1013.0 |
| 20260506130359 | 79 | 2.6 | 0.0 | 0.00 | 0.00 | 0.00 | 21 | 1013.0 | |
| 20260506124851 | 77 | 4.3 | 0.0 | 0.00 | 0.00 | 0.00 | 19 | 1013.0 | |
| 20260506123350 | 77 | 4.3 | 0.0 | 0.00 | 0.00 | 0.00 | 19 | 1013.0 | |
| 20260506121851 | 79 | 2.6 | 0.0 | 0.00 | 0.00 | 0.00 | 24 | 1013.0 | |
| 20260506120350 | 79 | 2.6 | 0.0 | 0.00 | 0.00 | 0.00 | 24 | 1013.0 | |
| 20260506114850 | 77 | 60 | 2.6 | 0.0 | 0.00 | 0.00 | 0.00 | 24 | 1014.0 |
| 20260506113351 | 77 | 60 | 2.6 | 0.0 | 0.00 | 0.00 | 0.00 | 24 | 1014.0 |
| 20260506111850 | 75 | 30 | 4.3 | 0.0 | 0.00 | 0.00 | 0.00 | 31 | 1014.0 |
| 20260506110350 | 75 | 30 | 4.3 | 0.0 | 0.00 | 0.00 | 0.00 | 31 | 1014.0 |